CAPE
0 0 0 0 0 0 0 0 0 0 0 0 0 179 492 988 1185 677 1419 1413 803 439 899 938 632 323 103 0 0 0 5 169 555 701 787 696 587 475 281 250 312 413 567 454 388 255 125 26 2
0 0 0 0 0 0 0 0 0 0 28 14 267 163 178 245 1053 1489 1700 1483 1203 822 781 881 692 457 190 24 0 0 2 120 208 336 456 448 385 311 184 222 414 623 592 298 269 168 0 0 0
0 0 0 0 0 0 0 0 0 0 0 0 0 0 5 77 1104 1367 1372 1349 1407 1186 795 907 818 554 255 58 6 0 0 51 153 211 232 207 161 111 136 292 509 691 713 437 360 268 29 0 0
0 0 0 0 0 0 0 0 0 0 0 0 0 0 0 0 758 1432 1613 1418 1042 778 834 1034 906 681 354 120 37 5 0 29 72 93 77 51 41 25 107 303 429 770 923 725 422 269 161 1 0
0 0 0 0 0 0 0 0 0 0 0 0 0 0 0 591 1660 1677 1639 1285 566 669 796 1151 1023 727 483 209 123 62 0 3 28 25 32 28 18 21 76 257 394 568 689 663 609 320 34 53 0
0 0 0 0 0 0 0 0 0 0 0 0 0 0 0 0 1715 1683 1526 911 623 695 970 1287 1313 1069 748 480 241 155 42 3 15 21 22 50 50 61 97 161 322 476 549 516 460 261 15 4 0
0 0 0 0 0 0 0 0 0 0 0 0 0 0 0 0 0 1783 1411 858 670 769 986 1106 1268 1192 1078 827 534 286 135 37 31 22 26 19 89 179 216 386 579 626 610 524 395 124 0 0 0
0 0 0 0 0 0 0 0 0 0 0 0 0 0 0 0 0 1762 1519 1181 1022 819 854 958 967 1200 1175 1086 886 576 358 138 38 26 15 21 31 143 348 555 759 803 697 533 332 121 15 0 0
0 0 0 0 0 0 0 0 0 0 0 0 0 0 0 0 12 958 1794 1743 1509 1243 943 986 1027 940 1094 905 1046 948 702 488 288 233 124 45 29 108 242 503 655 805 792 680 464 248 67 0 0
0 0 0 0 0 0 0 0 0 0 0 0 0 0 0 0 0 32 287 581 1649 1848 1638 1170 1003 977 922 1013 943 1069 904 871 717 599 527 315 171 59 84 198 460 546 684 641 501 335 144 10 0
0 0 0 0 0 0 0 0 0 0 0 0 0 0 0 0 0 0 0 0 0 128 1191 1541 1258 1095 959 902 798 876 938 828 633 547 525 488 242 106 165 197 260 441 471 494 553 453 293 23 0
0 0 0 0 0 0 0 0 0 0 0 0 0 0 0 0 0 0 0 0 0 0 0 983 1582 1365 983 831 622 574 847 659 447 444 445 441 380 158 126 85 84 69 243 211 320 186 176 70 5
0 0 0 0 0 0 0 0 0 0 0 0 0 0 0 0 0 0 0 0 0 0 0 427 1511 1582 1092 812 747 551 655 736 523 487 409 458 358 202 182 121 70 27 69 129 99 71 8 1 0
0 0 0 0 0 0 0 0 0 0 0 0 0 0 0 0 0 0 0 0 0 0 0 693 1405 1512 1285 1124 923 708 597 575 485 467 351 334 314 96 67 92 105 122 176 205 145 76 4 0 0
0 0 0 0 0 0 0 0 0 0 0 0 0 0 0 0 0 0 0 0 0 0 0 0 486 1361 1535 1342 1073 779 744 721 720 669 663 647 575 411 393 340 248 172 163 125 156 152 123 81 28
0 0 0 0 0 0 0 0 0 0 0 0 0 0 0 0 0 0 0 0 0 0 0 0 807 1070 1107 930 862 708 715 778 822 721 657 699 772 752 630 539 431 316 231 201 220 169 138 125 108
0 0 0 0 0 0 0 0 0 0 0 0 0 0 0 0 0 0 0 0 0 0 0 0 109 930 1059 932 791 767 801 795 707 743 565 261 215 291 249 336 400 399 340 311 291 286 224 170 90
0 0 0 0 0 0 0 0 0 0 0 0 0 0 0 0 0 0 0 0 0 0 0 0 0 63 226 225 153 38 17 0 0 0 0 0 1 20 36 52 51 80 244 349 367 317 330 278 300
0 0 0 0 0 0 0 0 0 0 0 0 0 0 0 0 0 0 0 0 0 0 0 0 0 0 0 0 0 0 0 0 0 0 0 0 0 0 0 5 0 12 0 0 218 431 373 331 375
0 0 0 0 0 0 0 0 0 0 0 0 0 0 0 0 0 0 0 0 0 0 0 0 0 0 0 0 0 0 0 0 0 0 0 0 0 0 0 0 0 0 29 59 255 245 278 403 383
0 0 0 0 0 0 0 0 0 0 0 0 0 0 0 0 0 0 0 0 0 0 0 0 0 0 0 0 0 0 0 0 0 0 0 0 0 0 0 0 0 0 124 149 213 351 373 526 318
0 0 0 0 0 0 0 0 0 0 0 0 0 0 0 0 0 0 0 0 0 0 0 0 0 0 0 0 0 0 0 0 0 0 0 0 0 0 0 0 0 0 145 309 412 538 377 222 183
0 0 0 0 0 0 0 0 0 0 0 0 0 0 0 0 0 0 0 0 0 0 0 0 0 0 0 0 0 0 0 0 0 0 0 0 0 0 0 0 0 0 13 185 315 549 397 137 210
0 0 0 0 0 0 0 0 0 0 0 0 0 0 0 0 0 0 0 0 0 0 0 0 0 0 0 0 0 0 0 0 0 0 0 0 0 0 0 0 0 0 0 40 133 241 316 382 305
0 0 0 0 0 0 0 0 0 0 0 0 0 0 0 0 0 0 0 0 0 0 0 0 0 0 0 0 0 0 0 0 0 0 0 0 0 0 0 0 0 0 0 12 63 166 192 263 255
0 0 0 0 0 0 0 0 0 0 0 0 0 0 0 0 0 0 0 0 0 0 0 0 0 0 0 0 0 0 0 0 0 0 0 0 0 0 0 0 0 0 0 0 0 27 194 352 169
0 0 0 0 0 0 0 0 0 0 0 0 0 0 0 0 0 0 0 0 0 0 0 0 0 0 0 0 0 0 0 0 0 0 0 0 0 0 0 0 0 0 0 0 0 0 188 414 466
0 0 0 0 0 0 0 0 0 0 0 0 0 0 0 0 0 0 0 0 0 0 0 0 0 0 0 0 0 0 0 0 0 0 0 0 0 0 0 0 0 0 0 0 0 0 155 529 592
0 0 0 0 0 0 0 0 0 0 0 0 0 0 0 0 0 0 0 0 0 0 0 0 0 0 0 0 0 0 0 0 0 0 0 0 0 0 0 0 0 0 0 0 0 8 210 419 578
0 0 0 0 0 0 0 0 0 0 0 0 0 0 0 0 0 0 0 0 0 0 0 0 0 0 0 0 0 0 0 0 0 0 0 0 0 0 0 0 0 0 0 0 51 76 75 186 104
CIN
-0 -0 -0 -0 -0 -0 -0 -0 -0 -0 -0 -0 -3 -151 -129 -170 -102 -72 -323 -351 -455 -546 -481 -423 -439 -492 -552 -0 -0 -0 -559 -503 -336 -289 -274 -300 -327 -349 -407 -407 -367 -306 -234 -260 -270 -305 -369 -461 -418
-0 -0 -0 -0 -0 -0 -0 -0 -0 -0 -130 -153 -151 -187 -152 -165 -204 -188 -212 -383 -454 -480 -495 -445 -440 -456 -534 -616 -0 -0 -328 -530 -473 -403 -358 -367 -388 -410 -457 -424 -325 -240 -240 -342 -341 -374 -0 -0 -0
-0 -0 -0 -0 -0 -0 -0 -0 -0 -0 -0 -0 -0 -0 -221 -219 -195 -201 -317 -399 -460 -445 -499 -454 -438 -455 -516 -587 -439 -0 -0 -572 -493 -454 -443 -452 -463 -493 -472 -389 -288 -211 -193 -275 -300 -329 -540 -0 -0
-0 -0 -0 -0 -0 -0 -0 -0 -0 -0 -0 -0 -0 -0 -0 -0 -205 -209 -324 -375 -436 -479 -482 -419 -418 -438 -498 -569 -609 -265 -0 -598 -551 -516 -517 -531 -536 -545 -462 -367 -313 -190 -145 -176 -252 -316 -386 -396 -0
-0 -0 -0 -0 -0 -0 -0 -0 -0 -0 -0 -0 -0 -25 -27 -220 -216 -240 -285 -369 -424 -473 -463 -376 -375 -417 -465 -528 -549 -582 -0 -516 -593 -599 -570 -561 -557 -535 -468 -372 -311 -242 -189 -187 -181 -266 -489 -485 -0
-0 -0 -0 -0 -0 -0 -0 -0 -0 -0 -0 -0 -0 -0 -0 -0 -182 -201 -273 -367 -452 -432 -406 -339 -300 -328 -386 -434 -495 -534 -601 -333 -625 -607 -604 -531 -524 -486 -445 -392 -311 -247 -213 -204 -214 -295 -473 -260 -0
-0 -0 -0 -0 -0 -0 -0 -0 -0 -0 -0 -0 -0 -0 -0 -0 -0 -241 -300 -402 -431 -419 -370 -339 -302 -303 -306 -337 -394 -461 -516 -601 -601 -606 -582 -590 -482 -414 -372 -282 -213 -190 -184 -194 -234 -381 -0 -0 -0
-0 -0 -0 -0 -0 -0 -0 -0 -0 -0 -0 -0 -0 -0 -0 -0 -0 -207 -275 -328 -350 -380 -370 -337 -336 -287 -275 -282 -299 -359 -418 -502 -555 -563 -595 -559 -532 -423 -302 -225 -160 -127 -145 -175 -246 -355 -481 -0 -0
-0 -0 -0 -0 -0 -0 -0 -0 -0 -0 -0 -0 -0 -0 -0 -0 -234 -230 -170 -196 -214 -250 -319 -313 -292 -304 -270 -299 -248 -243 -288 -348 -405 -406 -448 -517 -504 -421 -344 -222 -173 -123 -126 -146 -205 -272 -375 -0 -0
-0 -0 -0 -0 -0 -0 -0 -0 -0 -0 -0 -0 -0 -0 -0 -0 -0 -146 -309 -209 -132 -119 -174 -248 -258 -261 -269 -239 -237 -196 -211 -187 -211 -234 -248 -326 -392 -449 -401 -323 -202 -180 -142 -153 -197 -244 -308 -220 -0
-0 -0 -0 -0 -0 -0 -0 -0 -0 -0 -0 -0 -0 -0 -0 -0 -0 -0 -0 -0 -0 -368 -164 -195 -218 -235 -234 -233 -232 -215 -165 -154 -195 -212 -213 -219 -312 -384 -333 -298 -254 -182 -179 -185 -172 -201 -245 -349 -0
-0 -0 -0 -0 -0 -0 -0 -0 -0 -0 -0 -0 -0 -0 -0 -0 -0 -0 -0 -0 -0 -0 -0 -178 -189 -190 -206 -188 -241 -254 -159 -183 -230 -223 -208 -208 -220 -309 -320 -360 -365 -370 -271 -286 -227 -281 -272 -314 -390
-0 -0 -0 -0 -0 -0 -0 -0 -0 -0 -0 -0 -0 -0 -0 -0 -0 -0 -0 -0 -0 -0 -0 -206 -186 -169 -191 -199 -191 -216 -185 -172 -190 -186 -194 -162 -189 -236 -234 -267 -314 -354 -323 -276 -291 -320 -405 -104 -0
-0 -0 -0 -0 -0 -0 -0 -0 -0 -0 -0 -0 -0 -0 -0 -0 -0 -0 -0 -0 -0 -0 -0 -107 -130 -138 -144 -162 -170 -190 -193 -183 -183 -179 -175 -166 -146 -222 -228 -222 -225 -227 -195 -187 -221 -269 -385 -0 -0
-0 -0 -0 -0 -0 -0 -0 -0 -0 -0 -0 -0 -0 -0 -0 -0 -0 -0 -0 -0 -0 -0 -0 -25 -116 -145 -127 -144 -149 -165 -155 -156 -145 -123 -100 -91 -85 -102 -99 -106 -125 -154 -171 -174 -173 -204 -226 -290 -348
-0 -0 -0 -0 -0 -0 -0 -0 -0 -0 -0 -0 -0 -0 -0 -0 -0 -0 -0 -0 -0 -0 -0 -0 -118 -122 -138 -145 -147 -153 -156 -134 -120 -115 -108 -80 -66 -57 -59 -68 -92 -120 -107 -112 -105 -133 -162 -190 -228
-0 -0 -0 -0 -0 -0 -0 -0 -0 -0 -0 -0 -0 -0 -0 -0 -0 -0 -0 -0 -0 -0 -0 -0 -180 -114 -134 -144 -146 -136 -116 -104 -100 -74 -77 -86 -90 -97 -87 -73 -75 -80 -70 -74 -84 -86 -111 -143 -205
-0 -0 -0 -0 -0 -0 -0 -0 -0 -0 -0 -0 -0 -0 -0 -0 -0 -0 -0 -0 -0 -0 -0 -0 -0 -265 -241 -232 -209 -128 -49 -0 -0 -0 -0 -0 -15 -109 -100 -94 -102 -90 -69 -64 -70 -84 -89 -89 -85
-0 -0 -0 -0 -0 -0 -0 -0 -0 -0 -0 -0 -0 -0 -0 -0 -0 -0 -0 -0 -0 -0 -0 -0 -0 -0 -0 -0 -0 -0 -0 -0 -0 -0 -0 -0 -0 -0 -0 -91 -0 -70 -0 -0 -73 -35 -48 -59 -72
-0 -0 -0 -0 -0 -0 -0 -0 -0 -0 -0 -0 -0 -0 -0 -0 -0 -0 -0 -0 -0 -0 -0 -0 -0 -0 -0 -0 -0 -0 -0 -0 -0 -0 -0 -0 -0 -0 -0 -0 -0 -0 -58 -58 -35 -37 -31 -24 -44
-0 -0 -0 -0 -0 -0 -0 -0 -0 -0 -0 -0 -0 -0 -0 -0 -0 -0 -0 -0 -0 -0 -0 -0 -0 -0 -0 -0 -0 -0 -0 -0 -0 -0 -0 -0 -0 -0 -0 -0 -0 -0 -32 -40 -51 -35 -35 -8 -24
-0 -0 -0 -0 -0 -0 -0 -0 -0 -0 -0 -0 -0 -0 -0 -0 -0 -0 -0 -0 -0 -0 -0 -0 -0 -0 -0 -0 -0 -0 -0 -0 -0 -0 -0 -0 -0 -0 -0 -0 -0 -0 -65 -15 -12 -20 -36 -36 -22
-0 -0 -0 -0 -0 -0 -0 -0 -0 -0 -0 -0 -0 -0 -0 -0 -0 -0 -0 -0 -0 -0 -0 -0 -0 -0 -0 -0 -0 -0 -0 -0 -0 -0 -0 -0 -0 -0 -0 -0 -0 -0 -218 -62 -24 -2 -14 -32 -49
-0 -0 -0 -0 -0 -0 -0 -0 -0 -0 -0 -0 -0 -0 -0 -0 -0 -0 -0 -0 -0 -0 -0 -0 -0 -0 -0 -0 -0 -0 -0 -0 -0 -0 -0 -0 -0 -0 -0 -0 -0 -0 -9 -158 -98 -54 -24 -13 -32
-0 -0 -0 -0 -0 -0 -0 -0 -0 -0 -0 -0 -0 -0 -0 -0 -0 -0 -0 -0 -0 -0 -0 -0 -0 -0 -0 -0 -0 -0 -0 -0 -0 -0 -0 -0 -0 -0 -0 -0 -0 -0 -0 -113 -131 -79 -95 -58 -54
-0 -0 -0 -0 -0 -0 -0 -0 -0 -0 -0 -0 -0 -0 -0 -0 -0 -0 -0 -0 -0 -0 -0 -0 -0 -0 -0 -0 -0 -0 -0 -0 -0 -0 -0 -0 -0 -0 -0 -0 -0 -0 -0 -0 -0 -221 -87 -81 -126
-0 -0 -0 -0 -0 -0 -0 -0 -0 -0 -0 -0 -0 -0 -0 -0 -0 -0 -0 -0 -0 -0 -0 -0 -0 -0 -0 -0 -0 -0 -0 -0 -0 -0 -0 -0 -0 -0 -0 -0 -0 -0 -0 -0 -0 -0 -57 -78 -88
-0 -0 -0 -0 -0 -0 -0 -0 -0 -0 -0 -0 -0 -0 -0 -0 -0 -0 -0 -0 -0 -0 -0 -0 -0 -0 -0 -0 -0 -0 -0 -0 -0 -0 -0 -0 -0 -0 -0 -0 -0 -0 -0 -0 -0 -0 -57 -64 -81
-0 -0 -0 -0 -0 -0 -0 -0 -0 -0 -0 -0 -0 -0 -0 -0 -0 -0 -0 -0 -0 -0 -0 -0 -0 -0 -0 -0 -0 -0 -0 -0 -0 -0 -0 -0 -0 -0 -0 -0 -0 -0 -0 -0 -0 -223 -60 -69 -75
-0 -0 -0 -0 -0 -0 -0 -0 -0 -0 -0 -0 -0 -0 -0 -0 -0 -0 -0 -0 -0 -0 -0 -0 -0 -0 -0 -0 -0 -0 -0 -0 -0 -0 -0 -0 -0 -0 -0 -0 -0 -0 -3 -0 -141 -132 -187 -125 -186
Wind_Speed
18 17 14 14 15 12 11 14 17 18 15 15 10 12 13 14 14 14 13 18 18 19 19 20 19 19 19 18 18 18 18 17 17 18 18 19 20 20 20 21 21 20 19 19 18 18 18 19 18
19 16 16 15 15 14 14 17 19 18 11 13 13 13 13 14 14 13 14 16 16 17 18 18 18 18 18 18 18 18 17 17 16 16 16 17 18 18 19 20 20 19 19 18 18 18 17 17 17
16 16 16 15 14 17 18 18 21 17 7 13 14 14 15 15 17 16 15 15 15 16 16 16 17 17 16 17 17 16 17 16 16 15 15 16 17 17 18 18 18 17 17 17 17 17 16 16 16
17 17 16 16 18 17 19 23 21 14 11 14 12 14 15 16 17 17 16 15 14 14 13 14 14 14 14 15 16 16 16 15 15 15 15 15 15 16 16 16 15 15 14 14 14 14 14 14 15
17 17 17 16 18 18 18 19 18 13 12 13 13 14 14 16 16 15 15 14 14 13 12 12 13 12 12 12 13 15 15 15 14 14 13 13 13 13 13 12 12 11 11 11 11 11 12 12 13
19 18 19 19 18 17 17 18 15 14 13 12 13 14 15 16 16 14 13 13 12 10 10 9 9 8 9 9 9 10 11 11 12 11 11 11 10 10 10 9 8 8 8 8 8 9 9 9 10
21 21 21 19 20 18 17 17 16 15 15 15 16 16 16 15 19 14 14 12 10 9 8 7 6 5 5 5 5 6 6 6 7 8 8 7 8 7 6 5 5 6 6 6 7 7 7 7 6
19 21 22 21 20 21 17 16 16 18 19 17 17 20 20 21 21 13 13 12 10 8 7 6 5 4 5 5 4 3 4 4 4 4 4 4 3 3 3 4 6 7 8 8 8 8 8 7 6
19 26 28 23 19 20 18 18 16 16 16 17 17 17 18 18 16 13 14 14 12 9 7 8 6 6 6 5 5 6 8 7 6 6 6 6 8 7 7 8 8 9 10 11 11 11 11 12 11
24 28 28 21 18 20 22 21 20 18 19 18 18 21 18 17 15 14 14 13 13 12 11 8 7 7 8 9 7 8 11 12 13 13 12 12 14 14 13 13 14 14 14 15 15 15 15 16 15
24 30 22 23 20 23 24 23 20 19 22 20 23 22 23 21 17 15 14 14 15 16 13 10 8 8 8 9 9 11 10 13 14 14 15 15 17 18 19 20 20 19 18 18 19 19 18 17 18
27 27 25 26 22 22 24 23 22 22 23 21 23 22 22 23 22 18 16 17 19 18 17 11 9 9 10 11 10 10 11 12 14 15 16 18 19 21 22 23 24 24 23 22 21 23 23 21 21
26 25 25 26 25 23 24 24 24 23 25 24 22 23 23 23 19 19 17 17 19 22 20 15 12 11 10 10 12 12 13 13 15 17 18 19 21 23 24 25 26 27 27 27 28 28 27 26 25
22 25 27 25 25 24 24 24 22 24 25 24 24 25 27 23 18 18 18 18 18 19 17 15 13 11 11 12 11 13 14 16 16 18 20 19 22 25 27 28 29 30 30 31 31 31 31 31 29
22 26 24 22 25 22 21 25 24 23 24 25 26 27 25 25 23 22 22 23 19 17 15 14 12 9 9 10 12 13 15 17 19 21 21 23 25 27 29 30 32 33 31 30 32 33 34 34 33
23 23 26 22 22 23 22 25 22 22 26 30 30 28 27 27 26 26 26 25 22 19 18 16 14 11 12 14 14 16 17 19 21 23 25 27 28 29 32 34 35 33 33 32 34 34 35 36 35
23 24 24 24 21 24 24 28 26 31 35 36 34 33 32 31 30 28 27 25 21 18 16 13 13 11 12 13 15 17 20 21 23 25 26 27 28 31 32 34 36 35 35 35 34 35 35 35 35
22 23 23 24 26 28 29 32 35 34 32 34 35 35 34 31 29 29 29 27 22 18 14 12 14 14 13 13 15 16 17 18 19 21 24 27 30 32 35 37 39 38 38 38 36 36 34 36 37
18 21 25 24 23 30 31 34 34 31 29 30 32 32 28 25 25 23 22 20 17 16 14 14 12 13 12 13 14 14 17 18 21 23 26 28 31 34 36 38 41 42 41 41 39 39 39 38 36
19 23 26 26 26 29 30 34 26 25 25 26 27 24 20 18 18 18 17 17 16 15 13 11 11 12 14 14 15 16 18 20 22 24 26 29 33 36 38 39 40 41 41 41 40 39 41 41 35
22 24 25 27 29 25 30 27 24 20 20 21 21 18 17 17 17 16 16 16 16 15 14 14 15 16 18 19 18 20 21 24 27 29 32 34 35 36 37 39 41 41 39 40 40 37 36 40 37
25 20 24 28 30 31 25 32 25 20 20 20 19 17 17 16 16 16 16 16 16 16 15 15 17 18 20 21 22 24 26 28 30 31 33 36 38 39 40 40 40 40 38 38 38 36 34 33 38
23 23 27 29 30 29 27 27 27 21 20 19 17 17 16 15 15 15 16 16 16 17 17 17 18 21 22 23 24 26 29 31 33 35 38 39 39 40 40 41 40 41 39 36 35 34 35 35 37
21 25 29 25 26 32 26 26 29 22 19 16 16 16 14 13 14 14 15 16 16 17 18 20 21 22 24 26 27 29 32 34 37 40 42 43 44 43 41 39 39 39 40 37 34 32 33 33 32
24 29 34 32 31 32 25 30 28 22 19 16 15 14 14 14 14 16 17 18 19 20 22 23 24 26 28 29 30 32 33 35 39 42 44 47 48 46 43 41 40 40 39 38 35 33 30 30 29
26 25 28 35 35 35 29 32 27 26 23 21 14 13 14 15 17 19 20 20 22 23 24 26 28 30 30 32 34 35 36 39 40 41 46 48 48 48 45 43 40 40 39 38 37 36 33 29 27
24 25 22 28 30 36 31 31 33 25 22 19 16 15 16 20 23 23 23 25 26 29 30 31 32 34 36 37 37 37 39 41 43 43 44 48 47 47 46 42 42 40 37 37 36 36 34 29 26
23 20 27 26 35 39 34 36 32 27 24 24 21 20 21 31 32 28 27 28 30 32 32 32 33 35 36 37 38 38 40 41 42 42 46 48 47 46 45 43 41 40 37 36 36 36 34 30 29
28 28 27 27 28 37 45 38 29 36 32 29 25 24 30 38 37 31 29 31 33 34 34 34 35 37 40 40 41 42 42 42 43 44 44 45 44 44 44 41 40 39 38 35 36 37 36 31 29
26 26 23 28 31 30 38 54 38 40 36 31 32 35 39 40 34 31 31 34 35 36 36 36 39 42 44 44 44 45 44 45 45 44 43 41 40 40 41 38 38 36 34 34 33 34 30 26 24
Wind_Direction
278 276 277 288 292 301 309 324 318 304 314 337 25 319 334 313 303 316 126 113 103 105 110 113 109 105 100 93 92 93 97 99 97 100 103 104 106 106 108 109 107 106 102 99 97 94 94 95 91
281 279 279 298 292 286 293 313 305 302 346 21 11 341 342 342 314 288 313 69 85 108 109 108 108 106 101 98 95 97 98 100 101 102 102 104 107 107 109 110 110 107 105 102 101 98 96 95 92
291 279 288 300 296 283 285 303 294 283 1 350 0 351 330 331 339 347 337 65 68 99 104 106 108 106 99 97 94 96 100 101 101 102 104 105 109 109 110 112 112 109 105 102 101 100 98 95 95
287 281 289 291 285 293 291 291 300 298 312 332 345 351 6 336 333 3 45 61 68 86 98 105 107 103 99 99 100 98 101 102 102 103 105 107 110 110 110 111 110 108 106 99 97 95 96 94 98
290 284 283 289 294 297 301 305 321 311 312 321 321 330 5 332 342 11 32 54 79 82 92 102 112 106 100 97 99 103 106 107 104 105 103 105 107 109 109 107 104 100 97 93 89 88 95 95 102
280 284 278 283 292 302 306 312 327 328 323 323 322 323 324 340 340 357 24 46 57 64 70 81 97 96 95 90 91 91 92 96 101 100 101 105 104 105 106 101 94 84 75 72 70 71 86 91 94
274 276 276 283 289 294 308 313 320 320 322 319 322 314 320 342 311 352 3 17 29 44 47 47 55 69 72 71 65 70 70 72 78 86 89 88 101 95 92 73 57 49 45 43 45 50 61 67 73
283 277 277 282 285 286 303 313 319 318 310 322 328 304 301 309 322 1 5 15 26 22 9 5 4 8 3 2 17 16 10 24 30 54 49 25 30 37 21 7 354 351 349 349 350 355 359 6 19
285 270 270 281 285 288 298 305 318 324 326 327 326 327 326 331 343 348 338 340 342 353 351 336 331 330 331 332 332 328 318 321 329 331 335 336 323 324 324 320 322 323 326 327 328 329 331 332 334
273 270 273 284 288 290 294 300 306 310 312 316 318 319 330 334 340 342 339 341 337 335 335 327 314 309 314 315 319 316 308 303 303 307 312 314 310 310 310 308 305 306 306 308 311 313 314 315 317
277 270 287 286 291 295 295 299 304 308 304 309 306 310 312 318 327 329 330 333 332 329 328 323 311 299 300 306 308 311 310 303 301 302 305 306 306 305 304 303 302 300 300 300 302 303 304 306 307
277 282 288 290 295 298 294 296 300 302 305 309 308 311 312 311 311 315 320 322 323 325 326 326 316 300 294 300 304 304 303 300 305 302 303 302 302 302 302 300 300 298 296 296 297 297 297 298 299
281 286 290 290 294 293 293 291 295 300 305 306 311 312 312 314 312 315 318 321 321 318 318 318 312 306 298 297 299 300 297 300 300 302 302 300 300 300 300 300 299 296 295 293 293 294 295 294 293
289 289 290 295 292 294 295 296 298 301 307 309 310 310 309 313 315 316 318 321 324 327 326 322 313 305 300 299 301 301 298 299 302 301 300 300 300 301 300 299 298 297 295 293 291 291 292 293 292
295 290 295 301 300 303 302 297 298 303 308 310 313 312 312 310 310 310 314 315 319 324 331 329 321 316 308 302 301 303 302 302 303 304 304 302 300 300 300 300 298 295 294 294 292 291 290 290 291
291 294 285 299 305 305 305 293 306 317 313 304 308 312 312 310 309 310 310 311 314 315 316 322 325 320 313 310 307 307 307 306 306 306 305 302 301 301 300 298 298 298 296 292 291 290 291 289 289
293 289 290 292 308 306 305 295 304 308 305 301 305 305 305 305 306 308 310 312 315 312 312 317 323 322 320 317 313 311 310 308 308 308 307 307 306 304 302 301 300 299 295 292 292 291 288 290 290
288 292 296 296 302 305 300 296 300 305 307 305 305 303 302 304 306 309 311 311 311 313 314 314 321 323 324 323 325 323 321 321 321 319 317 314 312 309 305 301 299 299 295 292 290 289 291 287 288
304 301 297 303 309 306 301 299 302 307 311 311 310 312 313 313 313 318 323 327 329 324 321 320 323 330 334 332 331 328 325 324 322 321 320 318 316 313 310 307 302 298 294 291 288 288 285 290 288
308 304 302 306 309 308 305 301 306 313 316 320 323 328 335 339 343 347 353 3 5 6 4 359 353 344 340 337 333 329 327 324 323 324 325 324 320 317 315 312 308 303 297 293 291 288 285 285 285
309 307 307 307 312 314 309 305 307 318 327 334 340 351 356 355 357 -0 4 5 5 3 3 359 353 346 339 334 331 327 327 326 323 323 324 325 322 321 319 316 313 309 304 297 293 289 288 286 285
309 315 314 311 310 304 316 300 302 310 318 329 338 344 346 356 0 2 3 2 2 1 3 354 343 341 338 337 332 329 324 321 320 324 323 320 318 317 317 317 317 316 310 302 297 292 288 291 287
312 317 314 312 308 307 306 301 304 303 304 314 327 336 343 350 353 353 353 356 356 353 351 352 349 339 335 337 335 331 326 324 322 321 317 316 318 318 318 314 317 314 313 308 303 296 291 291 290
323 317 317 316 311 301 307 302 303 302 299 306 317 326 332 337 341 345 347 347 347 344 340 337 335 333 330 328 326 325 324 321 318 317 313 310 312 315 317 316 315 313 310 309 305 301 297 294 292
324 319 308 305 305 302 311 304 301 312 310 306 306 311 317 323 330 332 330 330 332 331 329 327 325 323 323 323 324 323 323 323 321 316 313 308 307 309 312 313 311 309 308 308 307 302 299 298 295
319 320 310 302 302 303 311 301 308 314 307 309 305 308 313 317 321 322 323 323 323 323 322 320 318 317 320 320 319 320 322 321 320 319 312 308 306 305 305 306 306 306 305 305 306 304 298 297 295
325 318 323 311 310 304 305 306 306 311 310 308 302 301 307 315 315 315 316 317 316 316 315 314 314 313 314 315 317 319 320 321 320 320 316 308 305 305 301 303 302 303 303 305 305 303 302 296 295
328 327 315 316 307 303 306 306 306 311 308 302 295 296 302 313 314 311 310 312 313 313 314 316 314 313 315 316 316 317 318 320 320 320 316 309 305 302 302 299 300 299 301 304 305 302 303 298 295
323 315 317 314 308 304 303 302 315 314 309 302 296 300 303 309 310 307 306 309 310 311 312 313 313 313 313 313 313 315 317 319 319 318 315 310 306 302 301 300 299 298 298 302 303 299 298 298 298
319 318 317 311 310 309 306 297 310 309 310 307 299 300 304 307 307 306 307 308 308 309 310 311 311 311 311 310 310 312 314 316 317 317 314 311 308 304 301 298 299 299 300 303 305 300 299 298 301